Wetterdaten: Freitag, 04.05.2018
Datum Zeit Temp. I. Temp. A. Boden 5 cm Feuchte A. Sonne Luftdruck Regen Wind Sonnenschein
04.05.2018 00:01 22,4 C 14,8 C 16,3 C 75 % 19 % 1015 hPa 0,0 l/m 1,0 km/h (0 Bft) 0 min
04.05.2018 00:04 22,4 C 14,8 C 16,2 C 75 % 19 % 1015 hPa 0,0 l/m 2,1 km/h (1 Bft) 0 min
04.05.2018 00:07 22,4 C 14,5 C 16,2 C 75 % 19 % 1016 hPa 0,0 l/m 1,9 km/h (1 Bft) 0 min
04.05.2018 00:10 22,4 C 14,4 C 16,3 C 75 % 19 % 1016 hPa 0,0 l/m 1,2 km/h (1 Bft) 0 min
04.05.2018 00:13 22,3 C 14,5 C 16,4 C 75 % 19 % 1016 hPa 0,0 l/m 0,1 km/h (0 Bft) 0 min
04.05.2018 00:16 22,4 C 14,4 C 16,3 C 75 % 19 % 1016 hPa 0,0 l/m 0,3 km/h (0 Bft) 0 min
04.05.2018 00:19 22,4 C 14,4 C 16,5 C 75 % 19 % 1016 hPa 0,0 l/m 0,1 km/h (0 Bft) 0 min
04.05.2018 00:22 22,4 C 14,4 C 16,4 C 75 % 19 % 1016 hPa 0,0 l/m 0,0 km/h (0 Bft) 0 min
04.05.2018 00:25 22,4 C 14,4 C 16,5 C 75 % 19 % 1016 hPa 0,0 l/m 0,0 km/h (0 Bft) 0 min
04.05.2018 00:28 22,4 C 14,3 C 16,2 C 75 % 19 % 1016 hPa 0,0 l/m 0,1 km/h (0 Bft) 0 min
04.05.2018 00:31 22,4 C 14,4 C 16,2 C 75 % 19 % 1016 hPa 0,0 l/m 0,0 km/h (0 Bft) 0 min
04.05.2018 00:34 22,4 C 14,3 C 16,4 C 75 % 19 % 1016 hPa 0,0 l/m 0,0 km/h (0 Bft) 0 min
04.05.2018 00:37 22,4 C 14,3 C 16,4 C 75 % 19 % 1016 hPa 0,0 l/m 0,0 km/h (0 Bft) 0 min
04.05.2018 00:40 22,4 C 14,4 C 16,3 C 75 % 19 % 1016 hPa 0,0 l/m 0,1 km/h (0 Bft) 0 min
04.05.2018 00:43 22,3 C 14,4 C 16,3 C 75 % 19 % 1016 hPa 0,0 l/m 0,1 km/h (0 Bft) 0 min
04.05.2018 00:46 22,4 C 14,2 C 16,3 C 75 % 19 % 1016 hPa 0,0 l/m 0,3 km/h (0 Bft) 0 min
04.05.2018 00:48 22,4 C 14,2 C 16,2 C 75 % 19 % 1016 hPa 0,0 l/m 0,0 km/h (0 Bft) 0 min
04.05.2018 00:51 22,4 C 14,1 C 16,2 C 76 % 19 % 1016 hPa 0,0 l/m 0,0 km/h (0 Bft) 0 min
04.05.2018 00:54 22,4 C 14,1 C 16,1 C 76 % 19 % 1016 hPa 0,0 l/m 0,0 km/h (0 Bft) 0 min
04.05.2018 00:57 22,3 C 14,2 C 16,2 C 76 % 19 % 1016 hPa 0,0 l/m 0,0 km/h (0 Bft) 0 min
04.05.2018 01:00 22,4 C 14,2 C 16,1 C 76 % 19 % 1016 hPa 0,0 l/m 0,0 km/h (0 Bft) 0 min
04.05.2018 01:03 22,4 C 14,1 C 16,0 C 76 % 19 % 1016 hPa 0,0 l/m 0,0 km/h (0 Bft) 0 min
04.05.2018 01:06 22,4 C 14,0 C 15,9 C 76 % 19 % 1016 hPa 0,0 l/m 6,2 km/h (2 Bft) 0 min
04.05.2018 01:09 22,3 C 14,0 C 15,9 C 76 % 19 % 1016 hPa 0,0 l/m 7,9 km/h (2 Bft) 0 min
04.05.2018 01:12 22,3 C 14,0 C 15,9 C 76 % 19 % 1016 hPa 0,0 l/m 6,2 km/h (2 Bft) 0 min
04.05.2018 01:15 22,3 C 13,9 C 15,8 C 76 % 19 % 1016 hPa 0,0 l/m 2,6 km/h (1 Bft) 0 min
04.05.2018 01:18 22,3 C 14,0 C 15,8 C 76 % 19 % 1016 hPa 0,0 l/m 1,8 km/h (1 Bft) 0 min
04.05.2018 01:22 22,3 C 14,0 C 15,8 C 76 % 19 % 1016 hPa 0,0 l/m 1,8 km/h (1 Bft) 0 min
04.05.2018 01:25 22,3 C 14,0 C 15,8 C 76 % 19 % 1016 hPa 0,0 l/m 0,6 km/h (0 Bft) 0 min
04.05.2018 01:28 22,3 C 14,0 C 15,8 C 76 % 19 % 1016 hPa 0,0 l/m 0,4 km/h (0 Bft) 0 min
04.05.2018 01:31 22,3 C 13,9 C 15,8 C 76 % 19 % 1016 hPa 0,0 l/m 1,5 km/h (1 Bft) 0 min
04.05.2018 01:34 22,3 C 13,9 C 15,6 C 76 % 19 % 1016 hPa 0,0 l/m 0,0 km/h (0 Bft) 0 min
04.05.2018 01:37 22,3 C 13,8 C 15,7 C 76 % 19 % 1016 hPa 0,0 l/m 0,0 km/h (0 Bft) 0 min
04.05.2018 01:40 22,4 C 13,8 C 15,7 C 76 % 19 % 1016 hPa 0,0 l/m 0,0 km/h (0 Bft) 0 min
04.05.2018 01:43 22,3 C 13,8 C 15,6 C 76 % 19 % 1016 hPa 0,0 l/m 0,0 km/h (0 Bft) 0 min
04.05.2018 01:46 22,4 C 13,7 C 15,6 C 76 % 19 % 1016 hPa 0,0 l/m 0,0 km/h (0 Bft) 0 min
04.05.2018 01:49 22,3 C 13,7 C 15,6 C 76 % 19 % 1016 hPa 0,0 l/m 0,0 km/h (0 Bft) 0 min
04.05.2018 01:52 22,3 C 13,6 C 15,6 C 76 % 19 % 1017 hPa 0,0 l/m 0,0 km/h (0 Bft) 0 min
04.05.2018 01:55 22,3 C 13,6 C 15,6 C 76 % 19 % 1017 hPa 0,0 l/m 0,0 km/h (0 Bft) 0 min
04.05.2018 01:58 22,3 C 13,5 C 15,6 C 76 % 19 % 1017 hPa 0,0 l/m 0,0 km/h (0 Bft) 0 min
04.05.2018 02:01 22,4 C 13,5 C 15,5 C 76 % 19 % 1017 hPa 0,0 l/m 0,0 km/h (0 Bft) 0 min
04.05.2018 02:04 22,3 C 13,4 C 15,4 C 76 % 19 % 1017 hPa 0,0 l/m 0,0 km/h (0 Bft) 0 min
04.05.2018 02:07 22,3 C 13,4 C 15,4 C 76 % 19 % 1017 hPa 0,0 l/m 0,0 km/h (0 Bft) 0 min
04.05.2018 02:10 22,3 C 13,5 C 15,6 C 76 % 19 % 1017 hPa 0,0 l/m 0,0 km/h (0 Bft) 0 min
04.05.2018 02:13 22,3 C 13,5 C 15,5 C 76 % 19 % 1017 hPa 0,0 l/m 0,0 km/h (0 Bft) 0 min
04.05.2018 02:16 22,3 C 13,5 C 15,5 C 76 % 19 % 1017 hPa 0,0 l/m 0,0 km/h (0 Bft) 0 min
04.05.2018 02:19 22,3 C 13,5 C 15,5 C 76 % 19 % 1017 hPa 0,0 l/m 0,0 km/h (0 Bft) 0 min
04.05.2018 02:22 22,3 C 13,6 C 15,5 C 76 % 19 % 1017 hPa 0,0 l/m 0,1 km/h (0 Bft) 0 min
04.05.2018 02:25 22,3 C 13,6 C 15,5 C 76 % 19 % 1017 hPa 0,0 l/m 0,1 km/h (0 Bft) 0 min
04.05.2018 02:28 22,3 C 13,5 C 15,5 C 76 % 19 % 1017 hPa 0,0 l/m 0,0 km/h (0 Bft) 0 min
04.05.2018 02:31 22,4 C 13,5 C 15,4 C 76 % 19 % 1017 hPa 0,0 l/m 0,0 km/h (0 Bft) 0 min
04.05.2018 02:34 22,4 C 13,6 C 15,4 C 76 % 19 % 1017 hPa 0,0 l/m 0,0 km/h (0 Bft) 0 min
04.05.2018 02:37 22,3 C 13,5 C 15,2 C 76 % 19 % 1017 hPa 0,0 l/m 0,0 km/h (0 Bft) 0 min
04.05.2018 02:40 22,3 C 13,5 C 15,4 C 76 % 19 % 1017 hPa 0,0 l/m 0,0 km/h (0 Bft) 0 min
04.05.2018 02:43 22,3 C 13,5 C 15,4 C 76 % 19 % 1017 hPa 0,0 l/m 0,0 km/h (0 Bft) 0 min
04.05.2018 02:46 22,3 C 13,4 C 15,3 C 76 % 19 % 1017 hPa 0,0 l/m 0,0 km/h (0 Bft) 0 min
04.05.2018 02:49 22,3 C 13,4 C 15,4 C 76 % 19 % 1017 hPa 0,0 l/m 0,0 km/h (0 Bft) 0 min
04.05.2018 02:52 22,3 C 13,4 C 15,4 C 76 % 19 % 1017 hPa 0,0 l/m 0,0 km/h (0 Bft) 0 min
04.05.2018 02:55 22,3 C 13,4 C 15,3 C 76 % 19 % 1017 hPa 0,0 l/m 0,0 km/h (0 Bft) 0 min
04.05.2018 02:58 22,3 C 13,3 C 15,2 C 76 % 19 % 1017 hPa 0,0 l/m 0,0 km/h (0 Bft) 0 min
04.05.2018 03:01 22,4 C 13,2 C 15,2 C 76 % 19 % 1017 hPa 0,0 l/m 0,0 km/h (0 Bft) 0 min
04.05.2018 03:04 22,3 C 13,2 C 15,2 C 76 % 19 % 1017 hPa 0,0 l/m 0,0 km/h (0 Bft) 0 min
04.05.2018 03:07 22,3 C 13,1 C 15,1 C 76 % 19 % 1017 hPa 0,0 l/m 0,0 km/h (0 Bft) 0 min
04.05.2018 03:10 22,3 C 13,1 C 15,2 C 76 % 19 % 1017 hPa 0,0 l/m 0,0 km/h (0 Bft) 0 min
04.05.2018 03:13 22,3 C 13,0 C 15,2 C 76 % 19 % 1017 hPa 0,0 l/m 0,0 km/h (0 Bft) 0 min
04.05.2018 03:16 22,3 C 13,0 C 15,2 C 76 % 19 % 1017 hPa 0,0 l/m 0,0 km/h (0 Bft) 0 min
04.05.2018 03:19 22,3 C 12,9 C 15,1 C 76 % 19 % 1017 hPa 0,0 l/m 0,0 km/h (0 Bft) 0 min
04.05.2018 03:22 22,3 C 12,9 C 15,1 C 76 % 19 % 1017 hPa 0,0 l/m 0,0 km/h (0 Bft) 0 min
04.05.2018 03:25 22,3 C 12,8 C 14,7 C 76 % 19 % 1017 hPa 0,0 l/m 0,0 km/h (0 Bft) 0 min
04.05.2018 03:28 22,3 C 12,7 C 14,9 C 76 % 19 % 1017 hPa 0,0 l/m 0,0 km/h (0 Bft) 0 min
04.05.2018 03:31 22,3 C 12,7 C 15,0 C 76 % 19 % 1017 hPa 0,0 l/m 0,0 km/h (0 Bft) 0 min
04.05.2018 03:34 22,3 C 12,7 C 15,0 C 76 % 19 % 1017 hPa 0,0 l/m 0,0 km/h (0 Bft) 0 min
04.05.2018 03:37 22,3 C 12,7 C 14,9 C 76 % 19 % 1017 hPa 0,0 l/m 0,0 km/h (0 Bft) 0 min
04.05.2018 03:40 22,4 C 12,7 C 15,0 C 76 % 19 % 1017 hPa 0,0 l/m 0,0 km/h (0 Bft) 0 min
04.05.2018 03:43 22,3 C 12,6 C 14,8 C 76 % 19 % 1017 hPa 0,0 l/m 0,0 km/h (0 Bft) 0 min
04.05.2018 03:46 22,3 C 12,6 C 14,9 C 76 % 19 % 1017 hPa 0,0 l/m 0,7 km/h (0 Bft) 0 min
04.05.2018 03:49 22,3 C 12,6 C 14,8 C 76 % 19 % 1017 hPa 0,0 l/m 0,0 km/h (0 Bft) 0 min
04.05.2018 03:52 22,3 C 12,6 C 14,8 C 76 % 19 % 1017 hPa 0,0 l/m 0,0 km/h (0 Bft) 0 min
04.05.2018 03:55 22,3 C 12,5 C 14,7 C 76 % 19 % 1017 hPa 0,0 l/m 0,0 km/h (0 Bft) 0 min
04.05.2018 03:58 22,3 C 12,4 C 14,6 C 76 % 19 % 1017 hPa 0,0 l/m 0,0 km/h (0 Bft) 0 min
04.05.2018 04:01 22,3 C 12,4 C 14,8 C 76 % 19 % 1017 hPa 0,0 l/m 0,0 km/h (0 Bft) 0 min
04.05.2018 04:04 22,3 C 12,4 C 14,8 C 76 % 19 % 1017 hPa 0,0 l/m 0,0 km/h (0 Bft) 0 min
04.05.2018 04:07 22,3 C 12,4 C 14,7 C 76 % 19 % 1017 hPa 0,0 l/m 0,0 km/h (0 Bft) 0 min
04.05.2018 04:10 22,3 C 12,4 C 14,8 C 76 % 19 % 1017 hPa 0,0 l/m 0,2 km/h (0 Bft) 0 min
04.05.2018 04:13 22,3 C 12,4 C 14,8 C 76 % 19 % 1017 hPa 0,0 l/m 0,0 km/h (0 Bft) 0 min
04.05.2018 04:16 22,3 C 12,4 C 14,7 C 76 % 19 % 1017 hPa 0,0 l/m 0,0 km/h (0 Bft) 0 min
04.05.2018 04:19 22,3 C 12,3 C 14,7 C 76 % 19 % 1017 hPa 0,0 l/m 0,0 km/h (0 Bft) 0 min
04.05.2018 04:22 22,3 C 12,3 C 14,7 C 76 % 19 % 1017 hPa 0,0 l/m 0,0 km/h (0 Bft) 0 min
04.05.2018 04:25 22,3 C 12,3 C 14,7 C 76 % 19 % 1017 hPa 0,0 l/m 0,7 km/h (0 Bft) 0 min
04.05.2018 04:28 22,3 C 12,2 C 14,6 C 76 % 19 % 1017 hPa 0,0 l/m 1,7 km/h (1 Bft) 0 min
04.05.2018 04:31 22,3 C 12,2 C 14,6 C 76 % 19 % 1017 hPa 0,0 l/m 0,7 km/h (0 Bft) 0 min
04.05.2018 04:34 22,3 C 12,2 C 14,4 C 76 % 19 % 1017 hPa 0,0 l/m 0,0 km/h (0 Bft) 0 min
04.05.2018 04:37 22,3 C 12,0 C 14,3 C 76 % 19 % 1017 hPa 0,0 l/m 0,0 km/h (0 Bft) 0 min
04.05.2018 04:40 22,3 C 12,0 C 14,4 C 76 % 19 % 1017 hPa 0,0 l/m 0,6 km/h (0 Bft) 0 min
04.05.2018 04:43 22,3 C 11,9 C 14,3 C 76 % 19 % 1017 hPa 0,0 l/m 0,5 km/h (0 Bft) 0 min
04.05.2018 04:46 22,3 C 11,7 C 14,2 C 76 % 19 % 1017 hPa 0,0 l/m 0,7 km/h (0 Bft) 0 min
04.05.2018 04:49 22,3 C 11,6 C 14,2 C 76 % 19 % 1017 hPa 0,0 l/m 1,5 km/h (1 Bft) 0 min
04.05.2018 04:52 22,3 C 11,6 C 14,1 C 76 % 19 % 1017 hPa 0,0 l/m 1,5 km/h (1 Bft) 0 min
04.05.2018 04:55 22,3 C 11,6 C 14,2 C 76 % 19 % 1017 hPa 0,0 l/m 0,1 km/h (0 Bft) 0 min
04.05.2018 04:58 22,3 C 11,6 C 14,3 C 76 % 19 % 1017 hPa 0,0 l/m 0,4 km/h (0 Bft) 0 min
04.05.2018 05:01 22,3 C 11,6 C 14,2 C 76 % 19 % 1017 hPa 0,0 l/m 0,0 km/h (0 Bft) 0 min
04.05.2018 05:04 22,3 C 11,6 C 14,2 C 76 % 19 % 1017 hPa 0,0 l/m 0,0 km/h (0 Bft) 0 min
04.05.2018 05:07 22,3 C 11,6 C 14,3 C 76 % 19 % 1017 hPa 0,0 l/m 0,0 km/h (0 Bft) 0 min
04.05.2018 05:10 22,3 C 11,5 C 14,1 C 77 % 19 % 1017 hPa 0,0 l/m 0,0 km/h (0 Bft) 0 min
04.05.2018 05:13 22,3 C 11,5 C 14,3 C 76 % 19 % 1017 hPa 0,0 l/m 0,0 km/h (0 Bft) 0 min
04.05.2018 05:16 22,3 C 11,5 C 14,3 C 76 % 19 % 1017 hPa 0,0 l/m 0,0 km/h (0 Bft) 0 min
04.05.2018 05:19 22,3 C 11,5 C 14,3 C 77 % 19 % 1017 hPa 0,0 l/m 0,0 km/h (0 Bft) 0 min
04.05.2018 05:22 22,3 C 11,5 C 14,2 C 77 % 19 % 1017 hPa 0,0 l/m 0,0 km/h (0 Bft) 0 min
04.05.2018 05:25 22,3 C 11,4 C 14,0 C 77 % 19 % 1017 hPa 0,0 l/m 0,0 km/h (0 Bft) 0 min
04.05.2018 05:28 22,3 C 11,3 C 14,0 C 76 % 19 % 1017 hPa 0,0 l/m 0,0 km/h (0 Bft) 0 min
04.05.2018 05:31 22,3 C 11,3 C 14,0 C 76 % 19 % 1017 hPa 0,0 l/m 0,0 km/h (0 Bft) 0 min
04.05.2018 05:34 22,3 C 11,4 C 14,0 C 77 % 19 % 1017 hPa 0,0 l/m 0,0 km/h (0 Bft) 0 min
04.05.2018 05:37 22,3 C 11,3 C 14,0 C 76 % 19 % 1017 hPa 0,0 l/m 0,0 km/h (0 Bft) 0 min
04.05.2018 05:40 22,3 C 11,2 C 13,9 C 76 % 19 % 1017 hPa 0,0 l/m 0,0 km/h (0 Bft) 0 min
04.05.2018 05:43 22,3 C 11,2 C 14,0 C 76 % 19 % 1017 hPa 0,0 l/m 0,0 km/h (0 Bft) 0 min
04.05.2018 05:46 22,3 C 11,2 C 13,8 C 76 % 19 % 1017 hPa 0,0 l/m 0,0 km/h (0 Bft) 0 min
04.05.2018 05:49 22,3 C 11,2 C 13,9 C 76 % 19 % 1017 hPa 0,0 l/m 0,0 km/h (0 Bft) 0 min
04.05.2018 05:52 22,3 C 11,2 C 13,8 C 76 % 19 % 1017 hPa 0,0 l/m 0,0 km/h (0 Bft) 0 min
04.05.2018 05:55 22,3 C 11,1 C 13,8 C 76 % 19 % 1017 hPa 0,0 l/m 0,0 km/h (0 Bft) 3 min
04.05.2018 05:58 22,3 C 11,1 C 13,7 C 76 % 19 % 1017 hPa 0,0 l/m 0,0 km/h (0 Bft) 3 min
04.05.2018 06:01 22,3 C 11,1 C 13,9 C 76 % 19 % 1017 hPa 0,0 l/m 0,0 km/h (0 Bft) 3 min
04.05.2018 06:04 22,3 C 11,0 C 14,0 C 76 % 19 % 1017 hPa 0,0 l/m 0,0 km/h (0 Bft) 3 min
04.05.2018 06:07 22,3 C 11,1 C 13,9 C 76 % 19 % 1017 hPa 0,0 l/m 0,0 km/h (0 Bft) 3 min
04.05.2018 06:10 22,3 C 11,1 C 13,9 C 76 % 19 % 1017 hPa 0,0 l/m 0,0 km/h (0 Bft) 3 min
04.05.2018 06:13 22,3 C 11,2 C 13,9 C 76 % 19 % 1017 hPa 0,0 l/m 0,0 km/h (0 Bft) 3 min
04.05.2018 06:16 22,3 C 11,2 C 13,9 C 76 % 19 % 1017 hPa 0,0 l/m 0,0 km/h (0 Bft) 3 min
04.05.2018 06:19 22,3 C 11,2 C 13,9 C 76 % 19 % 1017 hPa 0,0 l/m 0,0 km/h (0 Bft) 3 min
04.05.2018 06:22 22,3 C 11,2 C 13,8 C 76 % 19 % 1017 hPa 0,0 l/m 0,0 km/h (0 Bft) 3 min
04.05.2018 06:25 22,3 C 11,2 C 13,8 C 76 % 19 % 1017 hPa 0,0 l/m 0,0 km/h (0 Bft) 3 min
04.05.2018 06:28 22,3 C 11,2 C 13,5 C 76 % 19 % 1017 hPa 0,0 l/m 0,0 km/h (0 Bft) 3 min
04.05.2018 06:31 22,3 C 11,2 C 13,7 C 76 % 19 % 1017 hPa 0,0 l/m 0,0 km/h (0 Bft) 3 min
04.05.2018 06:34 22,3 C 11,2 C 13,5 C 76 % 19 % 1017 hPa 0,0 l/m 0,0 km/h (0 Bft) 3 min
04.05.2018 06:37 22,3 C 11,1 C 13,7 C 76 % 19 % 1017 hPa 0,0 l/m 0,2 km/h (0 Bft) 3 min
04.05.2018 06:40 22,3 C 11,2 C 13,7 C 76 % 19 % 1017 hPa 0,0 l/m 0,0 km/h (0 Bft) 3 min
04.05.2018 06:43 22,3 C 11,2 C 13,6 C 76 % 19 % 1017 hPa 0,0 l/m 0,0 km/h (0 Bft) 3 min
04.05.2018 06:46 22,3 C 11,2 C 13,8 C 76 % 19 % 1018 hPa 0,0 l/m 0,0 km/h (0 Bft) 3 min
04.05.2018 06:49 22,3 C 11,2 C 13,7 C 76 % 19 % 1018 hPa 0,0 l/m 0,0 km/h (0 Bft) 3 min
04.05.2018 06:52 22,3 C 11,2 C 13,7 C 76 % 19 % 1018 hPa 0,0 l/m 0,0 km/h (0 Bft) 3 min
04.05.2018 06:55 22,3 C 11,3 C 13,7 C 76 % 19 % 1018 hPa 0,0 l/m 0,0 km/h (0 Bft) 3 min
04.05.2018 06:58 22,3 C 11,4 C 13,7 C 77 % 19 % 1018 hPa 0,0 l/m 0,0 km/h (0 Bft) 3 min
04.05.2018 07:01 22,3 C 11,4 C 13,7 C 77 % 19 % 1018 hPa 0,0 l/m 0,0 km/h (0 Bft) 3 min
04.05.2018 07:04 22,3 C 11,4 C 13,6 C 77 % 19 % 1018 hPa 0,0 l/m 0,0 km/h (0 Bft) 3 min
04.05.2018 07:07 22,3 C 11,4 C 13,7 C 77 % 19 % 1018 hPa 0,0 l/m 0,0 km/h (0 Bft) 0 min
04.05.2018 07:10 22,3 C 11,5 C 13,8 C 77 % 19 % 1018 hPa 0,0 l/m 0,0 km/h (0 Bft) 0 min
04.05.2018 07:13 22,3 C 11,6 C 13,9 C 77 % 19 % 1018 hPa 0,0 l/m 0,0 km/h (0 Bft) 0 min
04.05.2018 07:16 22,3 C 11,6 C 13,9 C 77 % 19 % 1018 hPa 0,0 l/m 0,3 km/h (0 Bft) 0 min
04.05.2018 07:19 22,3 C 11,6 C 13,9 C 77 % 19 % 1018 hPa 0,0 l/m 0,8 km/h (0 Bft) 0 min
04.05.2018 07:22 22,3 C 11,6 C 13,9 C 77 % 19 % 1018 hPa 0,0 l/m 0,1 km/h (0 Bft) 0 min
04.05.2018 07:25 22,3 C 11,7 C 13,9 C 77 % 19 % 1018 hPa 0,0 l/m 0,0 km/h (0 Bft) 0 min
04.05.2018 07:28 22,3 C 11,7 C 13,9 C 76 % 19 % 1018 hPa 0,0 l/m 0,0 km/h (0 Bft) 0 min
04.05.2018 07:31 22,3 C 11,7 C 13,8 C 76 % 19 % 1018 hPa 0,0 l/m 0,0 km/h (0 Bft) 0 min
04.05.2018 07:34 22,3 C 11,8 C 13,9 C 76 % 19 % 1018 hPa 0,0 l/m 0,0 km/h (0 Bft) 0 min
04.05.2018 07:37 22,4 C 11,9 C 13,9 C 76 % 19 % 1018 hPa 0,0 l/m 0,1 km/h (0 Bft) 0 min
04.05.2018 07:40 22,3 C 12,0 C 13,9 C 76 % 19 % 1018 hPa 0,0 l/m 2,5 km/h (1 Bft) 0 min
04.05.2018 07:43 22,3 C 12,0 C 13,9 C 76 % 19 % 1018 hPa 0,0 l/m 0,3 km/h (0 Bft) 0 min
04.05.2018 07:46 22,3 C 12,1 C 14,0 C 76 % 19 % 1018 hPa 0,0 l/m 0,0 km/h (0 Bft) 0 min
04.05.2018 07:49 22,3 C 12,1 C 14,0 C 76 % 19 % 1018 hPa 0,0 l/m 0,0 km/h (0 Bft) 0 min
04.05.2018 07:52 22,3 C 12,2 C 14,0 C 76 % 19 % 1018 hPa 0,0 l/m 0,1 km/h (0 Bft) 0 min
04.05.2018 07:55 22,3 C 12,3 C 14,0 C 76 % 19 % 1018 hPa 0,0 l/m 0,0 km/h (0 Bft) 0 min
04.05.2018 07:58 22,4 C 12,3 C 14,0 C 76 % 19 % 1018 hPa 0,0 l/m 0,0 km/h (0 Bft) 0 min
04.05.2018 08:01 22,3 C 12,4 C 14,0 C 76 % 19 % 1018 hPa 0,0 l/m 0,0 km/h (0 Bft) 0 min
04.05.2018 08:04 22,3 C 12,5 C 14,1 C 76 % 19 % 1018 hPa 0,0 l/m 0,0 km/h (0 Bft) 0 min
04.05.2018 08:07 22,3 C 12,7 C 14,2 C 76 % 19 % 1018 hPa 0,0 l/m 0,0 km/h (0 Bft) 0 min
04.05.2018 08:10 22,3 C 12,7 C 14,2 C 76 % 19 % 1018 hPa 0,0 l/m 2,7 km/h (1 Bft) 0 min
04.05.2018 08:13 22,4 C 12,9 C 14,3 C 76 % 19 % 1018 hPa 0,0 l/m 0,3 km/h (0 Bft) 0 min
04.05.2018 08:16 22,3 C 13,1 C 14,3 C 76 % 19 % 1018 hPa 0,0 l/m 0,0 km/h (0 Bft) 0 min
04.05.2018 08:19 22,3 C 13,3 C 14,4 C 76 % 19 % 1018 hPa 0,0 l/m 0,0 km/h (0 Bft) 0 min
04.05.2018 08:22 22,3 C 13,4 C 14,5 C 76 % 19 % 1018 hPa 0,0 l/m 0,1 km/h (0 Bft) 0 min
04.05.2018 08:25 22,4 C 13,6 C 14,4 C 76 % 19 % 1018 hPa 0,0 l/m 0,1 km/h (0 Bft) 0 min
04.05.2018 08:28 22,4 C 13,8 C 14,5 C 77 % 19 % 1018 hPa 0,0 l/m 4,6 km/h (1 Bft) 0 min
04.05.2018 08:31 22,4 C 14,0 C 14,5 C 77 % 19 % 1018 hPa 0,0 l/m 1,9 km/h (1 Bft) 0 min
04.05.2018 08:34 22,4 C 14,0 C 14,5 C 77 % 19 % 1019 hPa 0,0 l/m 3,2 km/h (1 Bft) 0 min
04.05.2018 08:37 22,4 C 14,2 C 14,6 C 77 % 19 % 1019 hPa 0,0 l/m 3,2 km/h (1 Bft) 0 min
04.05.2018 08:40 22,4 C 14,3 C 14,6 C 77 % 19 % 1019 hPa 0,0 l/m 3,3 km/h (1 Bft) 0 min
04.05.2018 08:43 22,4 C 14,3 C 14,7 C 76 % 19 % 1019 hPa 0,0 l/m 3,3 km/h (1 Bft) 0 min
04.05.2018 08:46 22,4 C 14,4 C 14,7 C 77 % 19 % 1019 hPa 0,0 l/m 0,9 km/h (0 Bft) 0 min
04.05.2018 08:49 22,4 C 14,4 C 14,8 C 77 % 19 % 1019 hPa 0,0 l/m 0,0 km/h (0 Bft) 0 min
04.05.2018 08:52 22,3 C 14,6 C 14,8 C 76 % 19 % 1019 hPa 0,0 l/m 1,0 km/h (0 Bft) 0 min
04.05.2018 08:55 22,2 C 14,7 C 15,0 C 76 % 19 % 1018 hPa 0,0 l/m 0,4 km/h (0 Bft) 0 min
04.05.2018 08:58 22,2 C 14,7 C 15,0 C 76 % 19 % 1018 hPa 0,0 l/m 2,4 km/h (1 Bft) 0 min
04.05.2018 09:01 22,2 C 14,7 C 15,0 C 75 % 19 % 1018 hPa 0,0 l/m 0,0 km/h (0 Bft) 0 min
04.05.2018 09:04 22,2 C 15,0 C 15,1 C 76 % 19 % 1018 hPa 0,0 l/m 0,6 km/h (0 Bft) 0 min
04.05.2018 09:07 22,2 C 15,0 C 15,1 C 75 % 19 % 1018 hPa 0,0 l/m 2,5 km/h (1 Bft) 0 min
04.05.2018 09:10 22,2 C 14,9 C 15,1 C 75 % 19 % 1018 hPa 0,0 l/m 1,4 km/h (1 Bft) 0 min
04.05.2018 09:13 22,2 C 14,9 C 15,2 C 76 % 19 % 1018 hPa 0,0 l/m 3,9 km/h (1 Bft) 0 min
04.05.2018 09:16 22,3 C 14,8 C 15,2 C 74 % 19 % 1019 hPa 0,0 l/m 0,3 km/h (0 Bft) 0 min
04.05.2018 09:19 22,3 C 15,0 C 15,3 C 76 % 19 % 1019 hPa 0,0 l/m 4,1 km/h (1 Bft) 0 min
04.05.2018 09:22 22,3 C 15,0 C 15,4 C 76 % 19 % 1019 hPa 0,0 l/m 4,0 km/h (1 Bft) 0 min
04.05.2018 09:25 22,4 C 15,3 C 15,5 C 76 % 19 % 1019 hPa 0,0 l/m 2,2 km/h (1 Bft) 0 min
04.05.2018 09:28 22,3 C 15,4 C 15,5 C 75 % 19 % 1019 hPa 0,0 l/m 4,0 km/h (1 Bft) 0 min
04.05.2018 09:31 22,4 C 15,6 C 15,6 C 75 % 19 % 1018 hPa 0,0 l/m 0,4 km/h (0 Bft) 0 min
04.05.2018 09:34 22,4 C 15,7 C 15,6 C 74 % 19 % 1018 hPa 0,0 l/m 1,2 km/h (1 Bft) 0 min
04.05.2018 09:37 22,3 C 15,6 C 15,7 C 74 % 19 % 1018 hPa 0,0 l/m 4,4 km/h (1 Bft) 0 min
04.05.2018 09:40 22,3 C 15,6 C 15,6 C 74 % 19 % 1018 hPa 0,0 l/m 0,8 km/h (0 Bft) 0 min
04.05.2018 09:43 22,2 C 15,4 C 15,7 C 74 % 19 % 1018 hPa 0,0 l/m 0,8 km/h (0 Bft) 0 min
04.05.2018 09:46 22,2 C 15,7 C 15,8 C 76 % 19 % 1018 hPa 0,0 l/m 3,3 km/h (1 Bft) 0 min
04.05.2018 09:49 22,1 C 16,0 C 15,9 C 74 % 19 % 1018 hPa 0,0 l/m 5,1 km/h (1 Bft) 0 min
04.05.2018 09:52 22,1 C 16,2 C 15,9 C 75 % 19 % 1018 hPa 0,0 l/m 1,1 km/h (1 Bft) 0 min
04.05.2018 09:55 22,1 C 16,3 C 16,0 C 73 % 19 % 1018 hPa 0,0 l/m 5,5 km/h (1 Bft) 0 min
04.05.2018 09:58 22,1 C 16,4 C 16,1 C 73 % 19 % 1018 hPa 0,0 l/m 6,1 km/h (2 Bft) 0 min
04.05.2018 10:01 22,1 C 16,6 C 16,1 C 74 % 19 % 1018 hPa 0,0 l/m 2,1 km/h (1 Bft) 0 min
04.05.2018 10:04 22,1 C 16,8 C 16,3 C 72 % 19 % 1018 hPa 0,0 l/m 5,4 km/h (1 Bft) 0 min
04.05.2018 10:07 22,1 C 17,1 C 16,4 C 71 % 19 % 1018 hPa 0,0 l/m 8,3 km/h (2 Bft) 0 min
04.05.2018 10:10 22,2 C 17,1 C 16,5 C 70 % 19 % 1018 hPa 0,0 l/m 9,2 km/h (2 Bft) 0 min
04.05.2018 10:13 22,2 C 17,1 C 16,6 C 70 % 19 % 1018 hPa 0,0 l/m 15,6 km/h (3 Bft) 0 min
04.05.2018 10:16 22,2 C 17,0 C 16,5 C 68 % 19 % 1018 hPa 0,0 l/m 17,6 km/h (3 Bft) 0 min
04.05.2018 10:19 22,2 C 17,0 C 16,6 C 71 % 19 % 1018 hPa 0,0 l/m 10,8 km/h (2 Bft) 0 min
04.05.2018 10:22 22,1 C 17,0 C 16,6 C 70 % 19 % 1018 hPa 0,0 l/m 10,2 km/h (2 Bft) 0 min
04.05.2018 10:25 22,1 C 17,0 C 16,7 C 70 % 19 % 1018 hPa 0,0 l/m 8,9 km/h (2 Bft) 0 min
04.05.2018 10:28 22,1 C 17,0 C 16,7 C 70 % 19 % 1018 hPa 0,0 l/m 11,4 km/h (2 Bft) 0 min
04.05.2018 10:31 22,1 C 17,0 C 16,8 C 69 % 19 % 1018 hPa 0,0 l/m 10,2 km/h (2 Bft) 0 min
04.05.2018 10:34 22,0 C 17,0 C 16,9 C 70 % 19 % 1018 hPa 0,0 l/m 9,7 km/h (2 Bft) 0 min
04.05.2018 10:37 22,0 C 17,0 C 16,8 C 69 % 19 % 1018 hPa 0,0 l/m 9,7 km/h (2 Bft) 0 min
04.05.2018 10:40 22,0 C 17,0 C 16,9 C 69 % 19 % 1018 hPa 0,0 l/m 5,7 km/h (1 Bft) 0 min
04.05.2018 10:43 22,0 C 17,2 C 17,0 C 68 % 19 % 1018 hPa 0,0 l/m 8,1 km/h (2 Bft) 0 min
04.05.2018 10:46 22,0 C 17,2 C 17,1 C 70 % 19 % 1019 hPa 0,0 l/m 6,6 km/h (2 Bft) 0 min
04.05.2018 10:49 22,0 C 17,2 C 17,0 C 67 % 19 % 1018 hPa 0,0 l/m 9,7 km/h (2 Bft) 0 min
04.05.2018 10:52 22,0 C 17,1 C 17,1 C 68 % 19 % 1018 hPa 0,0 l/m 8,1 km/h (2 Bft) 0 min
04.05.2018 10:55 22,0 C 17,1 C 17,0 C 68 % 19 % 1018 hPa 0,0 l/m 5,9 km/h (2 Bft) 0 min
04.05.2018 10:58 22,0 C 17,2 C 17,1 C 68 % 19 % 1018 hPa 0,0 l/m 8,4 km/h (2 Bft) 0 min
04.05.2018 11:01 22,0 C 17,2 C 17,1 C 68 % 19 % 1018 hPa 0,0 l/m 10,2 km/h (2 Bft) 0 min
04.05.2018 11:04 22,0 C 17,2 C 17,1 C 68 % 19 % 1018 hPa 0,0 l/m 6,1 km/h (2 Bft) 0 min
04.05.2018 11:07 22,1 C 17,3 C 17,1 C 68 % 19 % 1019 hPa 0,0 l/m 8,5 km/h (2 Bft) 0 min
04.05.2018 11:10 22,1 C 17,3 C 17,2 C 68 % 19 % 1019 hPa 0,0 l/m 0,9 km/h (0 Bft) 0 min
04.05.2018 11:13 22,2 C 17,3 C 17,2 C 66 % 19 % 1019 hPa 0,0 l/m 1,3 km/h (1 Bft) 0 min
04.05.2018 11:16 22,2 C 17,4 C 17,2 C 68 % 19 % 1019 hPa 0,0 l/m 10,2 km/h (2 Bft) 0 min
04.05.2018 11:19 22,2 C 17,4 C 17,2 C 66 % 19 % 1019 hPa 0,0 l/m 7,0 km/h (2 Bft) 0 min
04.05.2018 11:22 22,2 C 17,4 C 17,4 C 68 % 19 % 1019 hPa 0,0 l/m 4,6 km/h (1 Bft) 0 min
04.05.2018 11:25 22,2 C 17,4 C 17,3 C 68 % 19 % 1019 hPa 0,0 l/m 6,1 km/h (2 Bft) 0 min
04.05.2018 11:28 22,2 C 17,5 C 17,3 C 68 % 19 % 1019 hPa 0,0 l/m 4,6 km/h (1 Bft) 0 min
04.05.2018 11:31 22,3 C 17,5 C 17,3 C 68 % 19 % 1019 hPa 0,0 l/m 9,4 km/h (2 Bft) 0 min
04.05.2018 11:34 22,2 C 17,5 C 17,3 C 68 % 19 % 1019 hPa 0,0 l/m 4,7 km/h (1 Bft) 0 min
04.05.2018 11:37 22,3 C 17,6 C 17,4 C 70 % 19 % 1019 hPa 0,0 l/m 6,0 km/h (2 Bft) 0 min
04.05.2018 11:40 22,3 C 17,6 C 17,4 C 68 % 19 % 1018 hPa 0,0 l/m 5,7 km/h (1 Bft) 0 min
04.05.2018 11:43 22,3 C 17,6 C 17,5 C 68 % 19 % 1018 hPa 0,0 l/m 10,5 km/h (2 Bft) 0 min
04.05.2018 11:46 22,3 C 17,7 C 17,5 C 67 % 19 % 1018 hPa 0,0 l/m 6,8 km/h (2 Bft) 0 min
04.05.2018 11:49 22,3 C 17,7 C 17,5 C 67 % 19 % 1019 hPa 0,0 l/m 5,4 km/h (1 Bft) 0 min
04.05.2018 11:52 22,3 C 17,6 C 17,5 C 68 % 19 % 1019 hPa 0,0 l/m 0,8 km/h (0 Bft) 0 min
04.05.2018 11:55 22,4 C 17,6 C 17,5 C 68 % 19 % 1019 hPa 0,0 l/m 6,5 km/h (2 Bft) 0 min
04.05.2018 11:58 22,4 C 17,7 C 17,5 C 67 % 19 % 1019 hPa 0,0 l/m 7,6 km/h (2 Bft) 0 min
04.05.2018 12:01 22,4 C 17,7 C 17,6 C 68 % 19 % 1019 hPa 0,0 l/m 0,8 km/h (0 Bft) 0 min
04.05.2018 12:04 22,4 C 17,7 C 17,5 C 70 % 19 % 1019 hPa 0,0 l/m 0,7 km/h (0 Bft) 0 min
04.05.2018 12:07 22,4 C 17,6 C 17,6 C 70 % 19 % 1019 hPa 0,0 l/m 4,5 km/h (1 Bft) 0 min
04.05.2018 12:10 22,3 C 17,6 C 17,6 C 68 % 19 % 1019 hPa 0,0 l/m 4,5 km/h (1 Bft) 0 min
04.05.2018 12:13 22,4 C 17,6 C 17,6 C 69 % 19 % 1019 hPa 0,0 l/m 5,9 km/h (2 Bft) 0 min
04.05.2018 12:16 22,4 C 17,7 C 17,6 C 67 % 19 % 1019 hPa 0,0 l/m 4,0 km/h (1 Bft) 0 min
04.05.2018 12:19 22,4 C 17,7 C 17,7 C 67 % 19 % 1019 hPa 0,0 l/m 8,1 km/h (2 Bft) 0 min
04.05.2018 12:22 22,4 C 17,8 C 17,6 C 68 % 19 % 1019 hPa 0,0 l/m 8,3 km/h (2 Bft) 0 min
04.05.2018 12:25 22,4 C 17,8 C 17,6 C 68 % 19 % 1019 hPa 0,0 l/m 9,8 km/h (2 Bft) 0 min
04.05.2018 12:28 22,4 C 17,8 C 17,7 C 66 % 19 % 1019 hPa 0,0 l/m 7,4 km/h (2 Bft) 0 min
04.05.2018 12:31 22,4 C 17,8 C 17,7 C 67 % 19 % 1019 hPa 0,0 l/m 11,6 km/h (2 Bft) 0 min
04.05.2018 12:34 22,4 C 17,7 C 17,8 C 66 % 19 % 1019 hPa 0,0 l/m 9,7 km/h (2 Bft) 0 min
04.05.2018 12:37 22,3 C 17,7 C 17,7 C 67 % 19 % 1019 hPa 0,0 l/m 8,1 km/h (2 Bft) 0 min
04.05.2018 12:40 22,4 C 17,7 C 17,7 C 67 % 19 % 1019 hPa 0,0 l/m 7,5 km/h (2 Bft) 0 min
04.05.2018 12:43 22,4 C 17,7 C 17,7 C 66 % 19 % 1019 hPa 0,0 l/m 7,0 km/h (2 Bft) 0 min
04.05.2018 12:46 22,3 C 17,8 C 17,7 C 66 % 19 % 1019 hPa 0,0 l/m 11,4 km/h (2 Bft) 0 min
04.05.2018 12:49 22,4 C 17,9 C 17,7 C 66 % 19 % 1019 hPa 0,0 l/m 10,2 km/h (2 Bft) 0 min
04.05.2018 12:52 22,4 C 17,9 C 17,8 C 68 % 19 % 1019 hPa 0,0 l/m 11,5 km/h (2 Bft) 0 min
04.05.2018 12:55 22,3 C 17,9 C 17,8 C 67 % 19 % 1019 hPa 0,0 l/m 8,5 km/h (2 Bft) 0 min
04.05.2018 12:58 22,4 C 18,0 C 17,8 C 68 % 19 % 1019 hPa 0,0 l/m 9,0 km/h (2 Bft) 0 min
04.05.2018 13:01 22,4 C 18,0 C 17,8 C 66 % 19 % 1019 hPa 0,0 l/m 17,0 km/h (3 Bft) 0 min
04.05.2018 13:04 22,4 C 18,1 C 17,9 C 66 % 19 % 1019 hPa 0,0 l/m 15,8 km/h (3 Bft) 0 min
04.05.2018 13:07 22,4 C 18,1 C 17,8 C 67 % 19 % 1019 hPa 0,0 l/m 11,0 km/h (2 Bft) 0 min
04.05.2018 13:10 22,4 C 18,1 C 18,0 C 67 % 19 % 1019 hPa 0,0 l/m 9,4 km/h (2 Bft) 0 min
04.05.2018 13:13 22,4 C 18,6 C 18,0 C 66 % 19 % 1019 hPa 0,0 l/m 7,7 km/h (2 Bft) 0 min
04.05.2018 13:16 22,4 C 18,6 C 18,2 C 65 % 19 % 1019 hPa 0,0 l/m 13,1 km/h (3 Bft) 0 min
04.05.2018 13:19 22,4 C 18,8 C 18,2 C 66 % 19 % 1019 hPa 0,0 l/m 13,1 km/h (3 Bft) 0 min
04.05.2018 13:22 22,4 C 18,6 C 18,2 C 64 % 19 % 1019 hPa 0,0 l/m 11,7 km/h (2 Bft) 0 min
04.05.2018 13:25 22,4 C 18,5 C 18,2 C 65 % 19 % 1019 hPa 0,0 l/m 11,7 km/h (2 Bft) 0 min
04.05.2018 13:28 22,4 C 18,4 C 18,4 C 64 % 19 % 1019 hPa 0,0 l/m 13,1 km/h (3 Bft) 0 min
04.05.2018 13:31 22,4 C 18,4 C 18,4 C 66 % 19 % 1019 hPa 0,0 l/m 16,1 km/h (3 Bft) 0 min
04.05.2018 13:34 22,4 C 18,5 C 18,5 C 64 % 19 % 1019 hPa 0,0 l/m 11,5 km/h (2 Bft) 0 min
04.05.2018 13:37 22,4 C 18,7 C 18,3 C 66 % 19 % 1019 hPa 0,0 l/m 18,2 km/h (3 Bft) 0 min
04.05.2018 13:40 22,4 C 18,6 C 18,3 C 64 % 19 % 1019 hPa 0,0 l/m 14,8 km/h (3 Bft) 0 min
04.05.2018 13:43 22,4 C 18,6 C 18,4 C 65 % 19 % 1019 hPa 0,0 l/m 13,3 km/h (3 Bft) 0 min
04.05.2018 13:46 22,4 C 18,9 C 18,7 C 66 % 19 % 1019 hPa 0,0 l/m 11,3 km/h (2 Bft) 0 min
04.05.2018 13:49 22,4 C 19,0 C 18,6 C 63 % 19 % 1019 hPa 0,0 l/m 14,7 km/h (3 Bft) 0 min
04.05.2018 13:52 22,4 C 18,8 C 18,7 C 64 % 19 % 1019 hPa 0,0 l/m 12,7 km/h (3 Bft) 0 min
04.05.2018 13:55 22,4 C 18,7 C 18,6 C 64 % 19 % 1019 hPa 0,0 l/m 10,7 km/h (2 Bft) 0 min
04.05.2018 13:58 22,4 C 18,8 C 18,7 C 62 % 19 % 1019 hPa 0,0 l/m 19,6 km/h (3 Bft) 0 min
04.05.2018 14:01 22,4 C 19,0 C 18,8 C 63 % 19 % 1019 hPa 0,0 l/m 12,6 km/h (3 Bft) 0 min
04.05.2018 14:04 22,4 C 19,0 C 18,9 C 61 % 19 % 1019 hPa 0,0 l/m 17,1 km/h (3 Bft) 0 min
04.05.2018 14:07 22,4 C 19,4 C 19,1 C 62 % 19 % 1019 hPa 0,0 l/m 14,4 km/h (3 Bft) 0 min
04.05.2018 14:10 22,4 C 19,6 C 19,2 C 61 % 19 % 1019 hPa 0,0 l/m 16,2 km/h (3 Bft) 0 min
04.05.2018 14:13 22,4 C 19,5 C 19,1 C 59 % 19 % 1019 hPa 0,0 l/m 23,5 km/h (4 Bft) 0 min
04.05.2018 14:16 22,4 C 19,6 C 19,2 C 62 % 19 % 1019 hPa 0,0 l/m 15,9 km/h (3 Bft) 0 min
04.05.2018 14:19 22,4 C 19,7 C 19,2 C 61 % 19 % 1019 hPa 0,0 l/m 15,9 km/h (3 Bft) 0 min
04.05.2018 14:22 22,4 C 19,6 C 19,1 C 61 % 19 % 1019 hPa 0,0 l/m 17,4 km/h (3 Bft) 0 min
04.05.2018 14:25 22,4 C 19,4 C 19,1 C 60 % 19 % 1019 hPa 0,0 l/m 11,5 km/h (2 Bft) 0 min
04.05.2018 14:28 22,4 C 19,2 C 19,1 C 60 % 19 % 1019 hPa 0,0 l/m 11,9 km/h (2 Bft) 0 min
04.05.2018 14:31 22,4 C 19,0 C 19,1 C 61 % 19 % 1019 hPa 0,0 l/m 12,7 km/h (3 Bft) 0 min
04.05.2018 14:34 22,4 C 18,9 C 19,0 C 62 % 19 % 1019 hPa 0,0 l/m 12,7 km/h (3 Bft) 0 min
04.05.2018 14:37 22,4 C 18,8 C 19,1 C 62 % 19 % 1019 hPa 0,0 l/m 15,7 km/h (3 Bft) 0 min
04.05.2018 14:40 22,4 C 18,8 C 19,1 C 64 % 19 % 1019 hPa 0,0 l/m 12,6 km/h (3 Bft) 0 min
04.05.2018 14:43 22,4 C 19,2 C 19,2 C 62 % 19 % 1019 hPa 0,0 l/m 14,6 km/h (3 Bft) 0 min
04.05.2018 14:46 22,4 C 19,2 C 19,6 C 62 % 19 % 1019 hPa 0,0 l/m 18,3 km/h (3 Bft) 0 min
04.05.2018 14:49 22,4 C 19,3 C 19,3 C 61 % 19 % 1019 hPa 0,0 l/m 19,0 km/h (3 Bft) 0 min
04.05.2018 14:52 22,4 C 19,5 C 19,4 C 62 % 19 % 1019 hPa 0,0 l/m 15,5 km/h (3 Bft) 0 min
04.05.2018 14:55 22,5 C 19,5 C 19,6 C 62 % 19 % 1019 hPa 0,0 l/m 18,4 km/h (3 Bft) 0 min
04.05.2018 14:58 22,5 C 20,0 C 19,5 C 60 % 19 % 1019 hPa 0,0 l/m 14,3 km/h (3 Bft) 0 min
04.05.2018 15:01 22,5 C 20,2 C 19,5 C 62 % 19 % 1019 hPa 0,0 l/m 10,0 km/h (2 Bft) 0 min
04.05.2018 15:04 22,5 C 20,2 C 19,5 C 60 % 19 % 1019 hPa 0,0 l/m 10,0 km/h (2 Bft) 0 min
04.05.2018 15:07 22,5 C 20,2 C 19,6 C 60 % 19 % 1019 hPa 0,0 l/m 21,0 km/h (4 Bft) 0 min
04.05.2018 15:10 22,5 C 20,1 C 19,8 C 60 % 19 % 1019 hPa 0,0 l/m 20,2 km/h (4 Bft) 0 min
04.05.2018 15:13 22,5 C 20,0 C 19,8 C 60 % 19 % 1019 hPa 0,0 l/m 24,3 km/h (4 Bft) 0 min
04.05.2018 15:16 22,5 C 19,9 C 19,6 C 60 % 19 % 1019 hPa 0,0 l/m 20,6 km/h (4 Bft) 0 min
04.05.2018 15:19 22,5 C 19,8 C 19,7 C 62 % 19 % 1019 hPa 0,0 l/m 24,0 km/h (4 Bft) 0 min
04.05.2018 15:22 22,5 C 19,7 C 19,7 C 62 % 19 % 1019 hPa 0,0 l/m 22,0 km/h (4 Bft) 0 min
04.05.2018 15:25 22,6 C 19,9 C 19,7 C 61 % 19 % 1019 hPa 0,0 l/m 19,1 km/h (3 Bft) 0 min
04.05.2018 15:28 22,6 C 20,0 C 19,6 C 60 % 19 % 1019 hPa 0,0 l/m 20,6 km/h (4 Bft) 0 min
04.05.2018 15:31 22,6 C 19,8 C 19,6 C 59 % 19 % 1019 hPa 0,0 l/m 19,3 km/h (3 Bft) 0 min
04.05.2018 15:34 22,6 C 19,8 C 19,6 C 60 % 19 % 1018 hPa 0,0 l/m 16,8 km/h (3 Bft) 0 min
04.05.2018 15:37 22,6 C 19,9 C 19,7 C 60 % 19 % 1018 hPa 0,0 l/m 18,5 km/h (3 Bft) 0 min
04.05.2018 15:40 22,6 C 20,1 C 19,7 C 60 % 19 % 1018 hPa 0,0 l/m 22,1 km/h (4 Bft) 0 min
04.05.2018 15:43 22,6 C 20,3 C 19,8 C 59 % 19 % 1018 hPa 0,0 l/m 19,1 km/h (3 Bft) 0 min
04.05.2018 15:46 22,6 C 20,0 C 19,9 C 60 % 19 % 1018 hPa 0,0 l/m 19,1 km/h (3 Bft) 0 min
04.05.2018 15:49 22,6 C 20,0 C 19,8 C 60 % 19 % 1018 hPa 0,0 l/m 18,8 km/h (3 Bft) 0 min
04.05.2018 15:52 22,6 C 19,8 C 19,8 C 61 % 19 % 1018 hPa 0,0 l/m 13,0 km/h (3 Bft) 0 min
04.05.2018 15:55 22,6 C 19,8 C 19,8 C 62 % 19 % 1018 hPa 0,0 l/m 9,0 km/h (2 Bft) 0 min
04.05.2018 15:58 22,6 C 19,7 C 19,8 C 62 % 19 % 1018 hPa 0,0 l/m 16,0 km/h (3 Bft) 0 min
04.05.2018 16:01 22,6 C 19,7 C 19,7 C 62 % 19 % 1018 hPa 0,0 l/m 19,8 km/h (3 Bft) 0 min
04.05.2018 16:04 22,6 C 19,6 C 19,8 C 62 % 19 % 1018 hPa 0,0 l/m 14,9 km/h (3 Bft) 0 min
04.05.2018 16:07 22,6 C 19,6 C 19,8 C 63 % 19 % 1018 hPa 0,0 l/m 15,0 km/h (3 Bft) 0 min
04.05.2018 16:10 22,6 C 19,4 C 19,8 C 63 % 19 % 1018 hPa 0,0 l/m 14,5 km/h (3 Bft) 0 min
04.05.2018 16:13 22,6 C 19,4 C 19,8 C 63 % 19 % 1018 hPa 0,0 l/m 14,5 km/h (3 Bft) 0 min
04.05.2018 16:16 22,6 C 19,5 C 19,9 C 63 % 19 % 1018 hPa 0,0 l/m 11,3 km/h (2 Bft) 0 min
04.05.2018 16:19 22,6 C 19,6 C 19,9 C 64 % 19 % 1018 hPa 0,0 l/m 12,0 km/h (2 Bft) 0 min
04.05.2018 16:22 22,6 C 19,7 C 20,0 C 62 % 19 % 1018 hPa 0,0 l/m 13,6 km/h (3 Bft) 0 min
04.05.2018 16:25 22,6 C 19,8 C 19,9 C 63 % 19 % 1018 hPa 0,0 l/m 13,3 km/h (3 Bft) 0 min
04.05.2018 16:28 22,6 C 19,8 C 20,0 C 62 % 19 % 1018 hPa 0,0 l/m 12,5 km/h (3 Bft) 0 min
04.05.2018 16:31 22,6 C 19,8 C 20,0 C 62 % 19 % 1018 hPa 0,0 l/m 12,1 km/h (2 Bft) 0 min
04.05.2018 16:34 22,7 C 19,6 C 19,9 C 62 % 19 % 1018 hPa 0,0 l/m 12,1 km/h (2 Bft) 0 min
04.05.2018 16:37 22,7 C 19,6 C 19,9 C 62 % 19 % 1018 hPa 0,0 l/m 12,5 km/h (3 Bft) 0 min
04.05.2018 16:40 22,7 C 19,4 C 19,9 C 63 % 19 % 1018 hPa 0,0 l/m 9,2 km/h (2 Bft) 0 min
04.05.2018 16:43 22,7 C 19,5 C 19,9 C 63 % 19 % 1018 hPa 0,0 l/m 11,8 km/h (2 Bft) 0 min
04.05.2018 16:46 22,7 C 19,4 C 19,8 C 63 % 19 % 1018 hPa 0,0 l/m 8,9 km/h (2 Bft) 0 min
04.05.2018 16:49 22,7 C 19,4 C 19,8 C 64 % 19 % 1018 hPa 0,0 l/m 9,8 km/h (2 Bft) 0 min
04.05.2018 16:52 22,7 C 19,3 C 19,8 C 64 % 19 % 1018 hPa 0,0 l/m 9,8 km/h (2 Bft) 0 min
04.05.2018 16:55 22,7 C 19,3 C 19,8 C 64 % 19 % 1018 hPa 0,0 l/m 11,1 km/h (2 Bft) 0 min
04.05.2018 16:58 22,7 C 19,3 C 19,8 C 63 % 19 % 1018 hPa 0,0 l/m 8,9 km/h (2 Bft) 0 min
04.05.2018 17:01 22,7 C 19,2 C 19,7 C 64 % 19 % 1018 hPa 0,0 l/m 11,3 km/h (2 Bft) 0 min
04.05.2018 17:04 22,7 C 19,3 C 19,7 C 65 % 19 % 1018 hPa 0,0 l/m 8,9 km/h (2 Bft) 0 min
04.05.2018 17:07 22,7 C 19,4 C 19,7 C 65 % 19 % 1018 hPa 0,0 l/m 7,9 km/h (2 Bft) 0 min
04.05.2018 17:10 22,7 C 19,4 C 19,8 C 64 % 19 % 1018 hPa 0,0 l/m 10,9 km/h (2 Bft) 0 min
04.05.2018 17:13 22,7 C 19,4 C 19,7 C 65 % 19 % 1018 hPa 0,0 l/m 10,8 km/h (2 Bft) 0 min
04.05.2018 17:16 22,7 C 19,4 C 19,7 C 65 % 19 % 1018 hPa 0,0 l/m 11,6 km/h (2 Bft) 0 min
04.05.2018 17:19 22,7 C 19,4 C 19,6 C 65 % 19 % 1018 hPa 0,0 l/m 14,1 km/h (3 Bft) 0 min
04.05.2018 17:22 22,7 C 19,4 C 19,8 C 65 % 19 % 1018 hPa 0,0 l/m 8,1 km/h (2 Bft) 0 min
04.05.2018 17:25 22,7 C 19,4 C 19,8 C 65 % 19 % 1018 hPa 0,0 l/m 5,4 km/h (1 Bft) 0 min
04.05.2018 17:28 22,7 C 19,2 C 19,7 C 65 % 19 % 1018 hPa 0,0 l/m 9,7 km/h (2 Bft) 0 min
04.05.2018 17:31 22,7 C 19,2 C 19,7 C 65 % 19 % 1018 hPa 0,0 l/m 8,8 km/h (2 Bft) 0 min
04.05.2018 17:37 22,7 C 19,8 C 19,8 C 65 % 19 % 1018 hPa 0,0 l/m 5,2 km/h (1 Bft) 0 min
04.05.2018 17:40 22,8 C 19,8 C 19,8 C 65 % 19 % 1018 hPa 0,0 l/m 10,5 km/h (2 Bft) 0 min
04.05.2018 17:43 22,8 C 19,9 C 19,8 C 65 % 19 % 1018 hPa 0,0 l/m 13,5 km/h (3 Bft) 0 min
04.05.2018 17:46 22,8 C 19,9 C 20,0 C 64 % 19 % 1018 hPa 0,0 l/m 7,5 km/h (2 Bft) 0 min
04.05.2018 17:49 22,8 C 19,8 C 19,9 C 64 % 19 % 1018 hPa 0,0 l/m 14,2 km/h (3 Bft) 0 min
04.05.2018 17:52 22,8 C 19,8 C 19,9 C 64 % 19 % 1018 hPa 0,0 l/m 9,7 km/h (2 Bft) 0 min
04.05.2018 17:55 22,8 C 19,7 C 19,8 C 64 % 19 % 1018 hPa 0,0 l/m 5,4 km/h (1 Bft) 0 min
04.05.2018 17:58 22,8 C 19,7 C 19,8 C 64 % 19 % 1018 hPa 0,0 l/m 6,3 km/h (2 Bft) 0 min
04.05.2018 18:01 22,8 C 19,8 C 19,9 C 65 % 19 % 1018 hPa 0,0 l/m 5,3 km/h (1 Bft) 0 min
04.05.2018 18:04 22,8 C 19,8 C 19,8 C 64 % 19 % 1018 hPa 0,0 l/m 5,3 km/h (1 Bft) 0 min
04.05.2018 18:07 22,8 C 19,8 C 19,8 C 64 % 19 % 1018 hPa 0,0 l/m 5,3 km/h (1 Bft) 0 min
04.05.2018 18:10 22,8 C 19,9 C 19,8 C 66 % 19 % 1018 hPa 0,0 l/m 5,2 km/h (1 Bft) 0 min
04.05.2018 18:13 22,8 C 19,9 C 19,8 C 65 % 19 % 1018 hPa 0,0 l/m 8,7 km/h (2 Bft) 0 min
04.05.2018 18:16 22,8 C 19,9 C 19,8 C 65 % 19 % 1018 hPa 0,0 l/m 7,0 km/h (2 Bft) 0 min
04.05.2018 18:19 22,8 C 19,9 C 19,8 C 64 % 19 % 1018 hPa 0,0 l/m 11,2 km/h (2 Bft) 0 min
04.05.2018 18:22 22,8 C 19,9 C 19,8 C 64 % 19 % 1018 hPa 0,0 l/m 6,9 km/h (2 Bft) 0 min
04.05.2018 18:25 22,7 C 19,8 C 19,7 C 65 % 19 % 1018 hPa 0,0 l/m 4,2 km/h (1 Bft) 0 min
04.05.2018 18:28 22,8 C 19,8 C 19,7 C 65 % 19 % 1018 hPa 0,0 l/m 7,1 km/h (2 Bft) 0 min
04.05.2018 18:31 22,8 C 19,8 C 19,7 C 64 % 19 % 1018 hPa 0,0 l/m 3,6 km/h (1 Bft) 0 min
04.05.2018 18:37 22,8 C 19,8 C 19,6 C 66 % 19 % 1018 hPa 0,0 l/m 2,5 km/h (1 Bft) 0 min
04.05.2018 18:40 22,8 C 19,7 C 19,6 C 65 % 19 % 1018 hPa 0,0 l/m 2,5 km/h (1 Bft) 0 min
04.05.2018 18:43 22,8 C 19,8 C 19,5 C 66 % 19 % 1018 hPa 0,0 l/m 4,2 km/h (1 Bft) 0 min
04.05.2018 18:46 22,8 C 19,7 C 19,6 C 66 % 19 % 1018 hPa 0,0 l/m 5,6 km/h (1 Bft) 0 min
04.05.2018 18:49 22,8 C 19,6 C 19,5 C 65 % 19 % 1018 hPa 0,0 l/m 5,1 km/h (1 Bft) 0 min
04.05.2018 18:52 22,8 C 19,6 C 19,5 C 66 % 19 % 1018 hPa 0,0 l/m 5,1 km/h (1 Bft) 0 min
04.05.2018 18:55 22,8 C 19,5 C 19,5 C 66 % 19 % 1018 hPa 0,0 l/m 5,1 km/h (1 Bft) 0 min
04.05.2018 18:58 22,8 C 19,5 C 19,4 C 67 % 19 % 1018 hPa 0,0 l/m 4,0 km/h (1 Bft) 0 min
04.05.2018 19:01 22,8 C 19,5 C 19,4 C 66 % 19 % 1018 hPa 0,0 l/m 3,0 km/h (1 Bft) 0 min
04.05.2018 19:04 22,8 C 19,5 C 19,5 C 67 % 19 % 1018 hPa 0,0 l/m 1,0 km/h (0 Bft) 3 min
04.05.2018 19:07 22,8 C 19,5 C 19,5 C 66 % 19 % 1018 hPa 0,0 l/m 4,6 km/h (1 Bft) 3 min
04.05.2018 19:10 22,8 C 19,4 C 19,4 C 66 % 19 % 1018 hPa 0,0 l/m 4,6 km/h (1 Bft) 3 min
04.05.2018 19:13 22,8 C 19,4 C 19,5 C 66 % 19 % 1018 hPa 0,0 l/m 5,5 km/h (1 Bft) 3 min
04.05.2018 19:16 22,8 C 19,3 C 19,4 C 67 % 19 % 1018 hPa 0,0 l/m 3,4 km/h (1 Bft) 3 min
04.05.2018 19:19 22,8 C 19,2 C 19,4 C 67 % 19 % 1018 hPa 0,0 l/m 7,2 km/h (2 Bft) 3 min
04.05.2018 19:22 22,8 C 19,2 C 19,3 C 67 % 19 % 1018 hPa 0,0 l/m 3,6 km/h (1 Bft) 3 min
04.05.2018 19:25 22,8 C 19,2 C 19,3 C 67 % 19 % 1018 hPa 0,0 l/m 3,1 km/h (1 Bft) 3 min
04.05.2018 19:28 22,8 C 19,2 C 19,2 C 68 % 19 % 1018 hPa 0,0 l/m 0,7 km/h (0 Bft) 3 min
04.05.2018 19:31 22,8 C 19,1 C 19,2 C 68 % 19 % 1018 hPa 0,0 l/m 1,7 km/h (1 Bft) 3 min
04.05.2018 19:37 22,8 C 19,0 C 19,2 C 68 % 19 % 1018 hPa 0,0 l/m 0,0 km/h (0 Bft) 3 min
04.05.2018 19:40 22,8 C 19,0 C 19,2 C 70 % 19 % 1018 hPa 0,0 l/m 0,0 km/h (0 Bft) 3 min
04.05.2018 19:43 22,8 C 18,9 C 19,2 C 70 % 19 % 1018 hPa 0,0 l/m 2,0 km/h (1 Bft) 3 min
04.05.2018 19:46 22,8 C 18,9 C 19,2 C 70 % 19 % 1018 hPa 0,0 l/m 0,5 km/h (0 Bft) 3 min
04.05.2018 19:49 22,8 C 18,9 C 19,2 C 71 % 19 % 1018 hPa 0,0 l/m 0,0 km/h (0 Bft) 3 min
04.05.2018 19:52 22,8 C 18,8 C 19,1 C 71 % 19 % 1018 hPa 0,0 l/m 0,0 km/h (0 Bft) 3 min
04.05.2018 19:55 22,8 C 18,8 C 19,0 C 72 % 19 % 1018 hPa 0,0 l/m 0,0 km/h (0 Bft) 3 min
04.05.2018 19:58 22,8 C 18,7 C 19,0 C 72 % 19 % 1018 hPa 0,0 l/m 0,0 km/h (0 Bft) 3 min
04.05.2018 20:01 22,8 C 18,6 C 18,9 C 72 % 19 % 1018 hPa 0,0 l/m 0,0 km/h (0 Bft) 3 min
04.05.2018 20:04 22,8 C 18,6 C 18,9 C 72 % 19 % 1018 hPa 0,0 l/m 0,0 km/h (0 Bft) 3 min
04.05.2018 20:07 22,7 C 18,4 C 18,9 C 72 % 19 % 1019 hPa 0,0 l/m 0,0 km/h (0 Bft) 3 min
04.05.2018 20:10 22,8 C 18,3 C 18,9 C 72 % 19 % 1019 hPa 0,0 l/m 0,0 km/h (0 Bft) 3 min
04.05.2018 20:13 22,8 C 18,2 C 18,8 C 73 % 19 % 1019 hPa 0,0 l/m 0,0 km/h (0 Bft) 3 min
04.05.2018 20:16 22,8 C 18,0 C 18,8 C 74 % 19 % 1019 hPa 0,0 l/m 0,0 km/h (0 Bft) 0 min
04.05.2018 20:19 22,8 C 17,9 C 18,8 C 74 % 19 % 1019 hPa 0,0 l/m 0,0 km/h (0 Bft) 0 min
04.05.2018 20:22 22,8 C 17,8 C 18,7 C 74 % 19 % 1019 hPa 0,0 l/m 0,0 km/h (0 Bft) 0 min
04.05.2018 20:25 22,8 C 17,6 C 18,6 C 74 % 19 % 1019 hPa 0,0 l/m 0,0 km/h (0 Bft) 0 min
04.05.2018 20:28 22,8 C 17,5 C 18,6 C 75 % 19 % 1019 hPa 0,0 l/m 0,0 km/h (0 Bft) 0 min
04.05.2018 20:31 22,8 C 17,5 C 18,6 C 75 % 19 % 1019 hPa 0,0 l/m 0,0 km/h (0 Bft) 0 min
04.05.2018 20:37 22,8 C 17,4 C 18,5 C 75 % 19 % 1019 hPa 0,0 l/m 0,0 km/h (0 Bft) 0 min
04.05.2018 20:40 22,8 C 17,4 C 18,5 C 75 % 19 % 1019 hPa 0,0 l/m 0,0 km/h (0 Bft) 0 min
04.05.2018 20:43 22,8 C 17,3 C 18,5 C 76 % 19 % 1019 hPa 0,0 l/m 0,0 km/h (0 Bft) 0 min
04.05.2018 20:46 22,8 C 17,2 C 18,5 C 76 % 19 % 1019 hPa 0,0 l/m 0,0 km/h (0 Bft) 0 min
04.05.2018 20:49 22,8 C 17,2 C 18,4 C 76 % 19 % 1019 hPa 0,0 l/m 0,0 km/h (0 Bft) 0 min
04.05.2018 20:52 22,8 C 17,2 C 18,3 C 76 % 19 % 1019 hPa 0,0 l/m 0,0 km/h (0 Bft) 0 min
04.05.2018 20:55 22,8 C 17,1 C 18,3 C 76 % 19 % 1019 hPa 0,0 l/m 0,0 km/h (0 Bft) 0 min
04.05.2018 20:58 22,8 C 17,0 C 18,2 C 76 % 19 % 1019 hPa 0,0 l/m 0,0 km/h (0 Bft) 0 min
04.05.2018 21:01 22,8 C 17,0 C 18,1 C 76 % 19 % 1019 hPa 0,0 l/m 0,0 km/h (0 Bft) 0 min
04.05.2018 21:04 22,8 C 16,8 C 18,1 C 77 % 19 % 1019 hPa 0,0 l/m 0,0 km/h (0 Bft) 0 min
04.05.2018 21:07 22,8 C 16,7 C 18,0 C 76 % 19 % 1019 hPa 0,0 l/m 0,0 km/h (0 Bft) 0 min
04.05.2018 21:10 22,8 C 16,6 C 17,9 C 77 % 19 % 1019 hPa 0,0 l/m 0,0 km/h (0 Bft) 0 min
04.05.2018 21:13 22,8 C 16,5 C 17,9 C 77 % 19 % 1019 hPa 0,0 l/m 0,0 km/h (0 Bft) 0 min
04.05.2018 21:16 22,8 C 16,5 C 17,8 C 77 % 19 % 1019 hPa 0,0 l/m 0,0 km/h (0 Bft) 0 min
04.05.2018 21:19 22,8 C 16,2 C 17,8 C 78 % 19 % 1020 hPa 0,0 l/m 0,0 km/h (0 Bft) 0 min
04.05.2018 21:22 22,8 C 16,2 C 17,8 C 78 % 19 % 1020 hPa 0,0 l/m 0,0 km/h (0 Bft) 0 min
04.05.2018 21:25 22,8 C 16,1 C 17,8 C 78 % 19 % 1020 hPa 0,0 l/m 0,0 km/h (0 Bft) 0 min
04.05.2018 21:28 22,8 C 16,0 C 17,8 C 78 % 19 % 1020 hPa 0,0 l/m 0,0 km/h (0 Bft) 0 min
04.05.2018 21:31 22,8 C 16,0 C 17,8 C 77 % 19 % 1020 hPa 0,0 l/m 0,0 km/h (0 Bft) 0 min
04.05.2018 21:37 22,8 C 15,9 C 17,6 C 78 % 19 % 1020 hPa 0,0 l/m 0,0 km/h (0 Bft) 0 min
04.05.2018 21:40 22,8 C 16,0 C 17,7 C 78 % 19 % 1020 hPa 0,0 l/m 0,0 km/h (0 Bft) 0 min
04.05.2018 21:43 22,8 C 15,9 C 17,7 C 78 % 19 % 1020 hPa 0,0 l/m 0,0 km/h (0 Bft) 0 min
04.05.2018 21:46 22,8 C 15,9 C 17,6 C 78 % 19 % 1020 hPa 0,0 l/m 0,0 km/h (0 Bft) 0 min
04.05.2018 21:49 22,8 C 15,9 C 17,6 C 78 % 19 % 1020 hPa 0,0 l/m 0,0 km/h (0 Bft) 0 min
04.05.2018 21:52 22,8 C 15,9 C 17,6 C 78 % 19 % 1020 hPa 0,0 l/m 0,0 km/h (0 Bft) 0 min
04.05.2018 21:55 22,8 C 15,9 C 17,6 C 78 % 19 % 1020 hPa 0,0 l/m 0,0 km/h (0 Bft) 0 min
04.05.2018 21:58 22,8 C 15,9 C 17,6 C 78 % 19 % 1020 hPa 0,0 l/m 0,0 km/h (0 Bft) 0 min
04.05.2018 22:01 22,8 C 15,8 C 17,4 C 78 % 19 % 1020 hPa 0,0 l/m 0,0 km/h (0 Bft) 0 min
04.05.2018 22:04 22,8 C 15,8 C 17,5 C 78 % 19 % 1020 hPa 0,0 l/m 0,0 km/h (0 Bft) 0 min
04.05.2018 22:07 22,8 C 15,8 C 17,5 C 78 % 19 % 1020 hPa 0,0 l/m 0,0 km/h (0 Bft) 0 min
04.05.2018 22:10 22,8 C 15,9 C 17,5 C 78 % 19 % 1020 hPa 0,0 l/m 0,0 km/h (0 Bft) 0 min
04.05.2018 22:13 22,8 C 15,9 C 17,5 C 78 % 19 % 1020 hPa 0,0 l/m 0,0 km/h (0 Bft) 0 min
04.05.2018 22:16 22,8 C 16,0 C 17,5 C 78 % 19 % 1020 hPa 0,0 l/m 0,0 km/h (0 Bft) 0 min
04.05.2018 22:19 22,8 C 15,9 C 17,5 C 78 % 19 % 1020 hPa 0,0 l/m 0,0 km/h (0 Bft) 0 min
04.05.2018 22:22 22,8 C 15,9 C 17,4 C 77 % 19 % 1020 hPa 0,0 l/m 0,0 km/h (0 Bft) 0 min
04.05.2018 22:25 22,8 C 15,9 C 17,4 C 77 % 19 % 1020 hPa 0,0 l/m 0,0 km/h (0 Bft) 0 min
04.05.2018 22:28 22,8 C 15,8 C 17,4 C 77 % 19 % 1020 hPa 0,0 l/m 0,0 km/h (0 Bft) 0 min
04.05.2018 22:31 22,8 C 15,8 C 17,3 C 77 % 19 % 1020 hPa 0,0 l/m 0,0 km/h (0 Bft) 0 min
04.05.2018 22:37 22,8 C 15,7 C 17,1 C 77 % 19 % 1020 hPa 0,0 l/m 0,0 km/h (0 Bft) 0 min
04.05.2018 22:40 22,8 C 15,6 C 17,1 C 77 % 19 % 1020 hPa 0,0 l/m 0,0 km/h (0 Bft) 0 min
04.05.2018 22:43 22,8 C 15,5 C 17,2 C 77 % 19 % 1020 hPa 0,0 l/m 0,0 km/h (0 Bft) 0 min
04.05.2018 22:46 22,8 C 15,5 C 17,1 C 78 % 19 % 1020 hPa 0,0 l/m 0,0 km/h (0 Bft) 0 min
04.05.2018 22:49 22,8 C 15,5 C 17,2 C 78 % 19 % 1020 hPa 0,0 l/m 0,0 km/h (0 Bft) 0 min
04.05.2018 22:52 22,8 C 15,5 C 17,2 C 78 % 19 % 1020 hPa 0,0 l/m 0,0 km/h (0 Bft) 0 min
04.05.2018 22:55 22,8 C 15,5 C 17,2 C 78 % 19 % 1020 hPa 0,0 l/m 1,5 km/h (1 Bft) 0 min
04.05.2018 22:58 22,8 C 15,6 C 17,2 C 78 % 19 % 1020 hPa 0,0 l/m 0,2 km/h (0 Bft) 0 min
04.05.2018 23:01 22,8 C 15,6 C 17,2 C 78 % 19 % 1020 hPa 0,0 l/m 0,0 km/h (0 Bft) 0 min
04.05.2018 23:04 22,8 C 15,5 C 17,0 C 78 % 19 % 1020 hPa 0,0 l/m 0,0 km/h (0 Bft) 0 min
04.05.2018 23:07 22,8 C 15,5 C 17,0 C 78 % 19 % 1020 hPa 0,0 l/m 0,0 km/h (0 Bft) 0 min
04.05.2018 23:10 22,8 C 15,4 C 17,0 C 78 % 19 % 1020 hPa 0,0 l/m 1,5 km/h (1 Bft) 0 min
04.05.2018 23:13 22,8 C 15,4 C 17,0 C 78 % 19 % 1020 hPa 0,0 l/m 0,0 km/h (0 Bft) 0 min
04.05.2018 23:16 22,8 C 15,4 C 17,0 C 78 % 19 % 1020 hPa 0,0 l/m 0,0 km/h (0 Bft) 0 min
04.05.2018 23:19 22,8 C 15,5 C 17,1 C 78 % 19 % 1020 hPa 0,0 l/m 0,0 km/h (0 Bft) 0 min
04.05.2018 23:22 22,8 C 15,5 C 17,0 C 78 % 19 % 1021 hPa 0,0 l/m 0,0 km/h (0 Bft) 0 min
04.05.2018 23:25 22,8 C 15,5 C 16,9 C 78 % 19 % 1021 hPa 0,0 l/m 0,0 km/h (0 Bft) 0 min
04.05.2018 23:28 22,8 C 15,5 C 17,0 C 78 % 19 % 1021 hPa 0,0 l/m 0,0 km/h (0 Bft) 0 min
04.05.2018 23:31 22,7 C 15,6 C 16,9 C 78 % 19 % 1021 hPa 0,0 l/m 0,0 km/h (0 Bft) 0 min
04.05.2018 23:34 22,7 C 15,6 C 16,8 C 77 % 19 % 1021 hPa 0,0 l/m 0,1 km/h (0 Bft) 0 min
04.05.2018 23:37 22,7 C 15,6 C 16,8 C 78 % 19 % 1020 hPa 0,0 l/m 0,3 km/h (0 Bft) 0 min
04.05.2018 23:40 22,7 C 15,6 C 16,9 C 78 % 19 % 1021 hPa 0,0 l/m 0,3 km/h (0 Bft) 0 min
04.05.2018 23:43 22,7 C 15,6 C 16,9 C 78 % 19 % 1021 hPa 0,0 l/m 0,3 km/h (0 Bft) 0 min
04.05.2018 23:46 22,7 C 15,7 C 16,9 C 78 % 19 % 1021 hPa 0,0 l/m 0,0 km/h (0 Bft) 0 min
04.05.2018 23:49 22,7 C 15,6 C 16,8 C 78 % 19 % 1021 hPa 0,0 l/m 0,0 km/h (0 Bft) 0 min
04.05.2018 23:52 22,7 C 15,6 C 16,9 C 78 % 19 % 1020 hPa 0,0 l/m 0,0 km/h (0 Bft) 0 min
04.05.2018 23:55 22,7 C 15,6 C 16,8 C 78 % 19 % 1020 hPa 0,0 l/m 0,0 km/h (0 Bft) 0 min
04.05.2018 23:58 22,7 C 15,6 C 16,8 C 77 % 19 % 1020 hPa 0,0 l/m 0,0 km/h (0 Bft) 0 min
_ Min-Zeit 10:34 06:04 06:28 14:13 - 00:01 - 00:22 -
Minimum _ 22,0 C 11,0 C 13,5 C 59 % - 1015 hPa - 0,0 km/h (0 Bft) -
_ Max-Zeit 17:40 15:43 16:22 21:19 00:01 23:22 00:01 15:13 05:55
Maximum _ 22,8 C 20,3 C 20,0 C 78 % 19 % 1021 hPa 0,0 l/m 24,3 km/h
S-SO (4 Bft)
3 min
Durchschnitt _ 22,5 C 16,0 C 16,9 C 72 % #2:21 h 1018 hPa #0,0 l/m 4,4 km/h (1 Bft) #2:21 h